一网星座-0307星 (ONEWEB-0307 )

导读

ONEWEB-0307是英国OneWeb星座下的低轨宽带通信卫星,于2021年9月14日发射。它运行在约1200公里高度的近地极轨轨道,质量约175-200kg,采用Ku波段提供通信服务,不设星间链路。 该卫星是OneWeb全球天基互联网组网的一环,旨在为全球偏远地区及各类移动场景提供高速宽带接入服务,助力OneWeb完成600余颗卫星的组网建设,填补地面网络覆盖盲区。

基本信息
目录编号:
49189
目录名称:
ONEWEB-0307
国际标识:
2021-083D
轨道中心:
EARTH
卫星名称:
一网星座-0307星
卫星全名:
一网星座-0307星 (ONEWEB-0307 )
卫星状态:
在轨 (已飞行1777 天)
发射日期:
2021-09-14 UTC
国别 :
英国 (GB)
星等 :
--
轨道信息
数据来源 国际轨道数据 AOE轨道数据
星历时间 2026-07-27T13:29:50+0800
17小时前
查看轨道信息
2026-07-25T05:00:00+0800
3天前
查看轨道信息
半长轴 7587.906km 7587.897km
偏心率 0.0001854 0.0001587
轨道倾角 87.898° 87.898°
近地点辐角 97.157° 92.141°
升交点赤经 312.269° 312.736°
平近点角 262.977° 303.267°
近地点 1208.362km 1208.555km
远地点 1211.176km 1210.965km
周期 109.633分钟 109.633分钟
每日圈数 13.134691 13.134716
详细信息
平衡模式:
三轴稳定
覆盖范围:
全球
运营商:
一网卫星公司
运营商所在国:
英国
制造商(研发单位):
一网卫星公司
制造商所在国:
英国
使用方式:
暂无
卫星简介
OneWeb卫星网络由648颗重约125公斤的微型卫星组成,运行在1200公里的轨道上。 每颗卫星都能够提供至少每秒8千兆位的吞吐量,以使用其高吞吐量的Ku频段有效载荷为家庭和移动平台提供互联网接入。该卫星仍在工作。
2D轨道图
3D轨道图
轨道高度分析图
轨道倾角分析图
轨道综合分析图
查看轨道综合分析图